Regional Weather Roundup
Issued by NWS

Home | Current Version | Previous Version | Text Only | Print | Product List | Glossary Off
Versions: 1 2 3 4 5 6 7 8 9 10 11 12 13 14 15 16 17 18 19 20 21 22 23 24 25 26 27 28 29 30 31 32 33 34 35 36 37 38 39 40 41 42 43 44 45 46 47 48 49 50

343
ASUS44 KLIX 240710
RWRLA
LOUISIANA WEATHER ROUNDUP
NATIONAL WEATHER SERVICE NEW ORLEANS LA
200 AM CDT FRI OCT 24 2014

NOTE: "FAIR" INDICATES FEW OR NO CLOUDS BELOW 12,000 FEET WITH NO
      SIGNIFICANT WEATHER AND/OR OBSTRUCTIONS TO VISIBILITY.
      SKY/WX - SKY CONDITION AND SIGNIFICANT WEATHER.
      TMP - AIR TEMPERATURE.    DP   - DEWPOINT TEMPERATURE.
      RH  - RELATIVE HUMIDITY.  PRES - PRESSURE.
      HX  - HEAT INDEX.         WCI  - WIND CHILL INDEX.

*  THESE STATIONS ARE NOT NWS OR FAA STATIONS AND ARE NOT UNDER
   NWS QUALITY CONTROL.

LAZ040-048-061>063-065-066-069-240800-
SOUTHEAST LOUISIANA

CITY           SKY/WX    TMP DP  RH WIND       PRES   REMARKS
N.O. AUDUBON     N/A     61  52  72 MISG        N/A
N.O. INTL ARPT PTCLDY    63  49  60 NE9       30.07S
N.O. LAKEFRONT CLEAR     66  51  58 NE15      30.07F
N.O. DOWNTOWN* FAIR      64  45  48 NE7       30.07S
SLIDELL        CLEAR     50  47  89 CALM      30.07S
BATON ROUGE    CLEAR     53  49  86 VRB3      30.10S
BOOTHVILLE     CLEAR     66  59  78 N5        30.06R
BELLE CHASSE   CLEAR     53  50  89 CALM      30.06F
BOGALUSA*        N/A     51  47  86 CALM      30.10S
NEW ROADS*     FAIR      51  49  93 CALM      30.10S
GONZALES*      FAIR      53  53 100 CALM      30.08S
HAMMOND*       CLEAR     50  46  87 N5        30.10S
HOUMA*         CLEAR     54  52  92 CALM      30.07S
PORT FOURCHON* SUNNY     66  59  77 N6        30.09R

$$

LAZ041-044-053-054-240800-
SOUTHWEST LOUISIANA

CITY           SKY/WX    TMP DP  RH WIND       PRES   REMARKS
LAKE CHARLES   CLEAR     53  49  86 NE3       30.11R
LAFAYETTE      CLEAR     53  51  93 NE3       30.10S
PATTERSON      CLEAR     55  54  94 N3        30.10S
SALT POINT       N/A     59  54  83 N5        30.08R
NEW IBERIA     CLEAR     53  50  89 N6        30.10S
CHENAULT AIRPK CLEAR     53  50  89 CALM      30.11R

$$

LAZ027-028-240800-
CENTRAL LOUISIANA

CITY           SKY/WX    TMP DP  RH WIND       PRES   REMARKS
FORT POLK      CLEAR     52  50  94 N5        30.12S
ALEXANDRIA INT CLEAR     48  47  96 CALM      30.12R
ALEXANDRIA     CLEAR     44  43  96 CALM      30.13R

$$

LAZ001-002-240800-
NORTHWEST LOUISIANA

CITY           SKY/WX    TMP DP  RH WIND       PRES   REMARKS
SHREVEPORT     CLEAR     53  50  89 CALM      30.13S
BARKSDALE AFB  CLEAR     51  49  95 NE3       30.15R
DTN SHREVEPORT CLEAR     53  49  86 CALM      30.14S

$$

LAZ014-016-240800-
NORTHEAST LOUISIANA

CITY           SKY/WX    TMP DP  RH WIND       PRES   REMARKS
MONROE         FOG       48  46  93 CALM      30.15S VSB 1/4
TALLULAH       CLEAR     45  44  97 N3        30.12S

$$




USA.gov is the U.S. government's official web portal to all federal, state and local government web resources and services.